| time (UTC) | temp F | wind direction | speed MPH | gust MPH | rain 1hr in | rain 24hr in | rain mn in | humidity % | barometer mb |
| 20260906132215 | 65 | 355 | 1.0 | 2.0 | 0.00 | 0.00 | 0.00 | 40 | 1020.6 |
| 20260906131215 | 65 | 0.0 | 0.0 | 0.00 | 0.00 | 0.00 | 41 | 1020.4 | |
| 20260906130235 | 64 | 355 | 1.0 | 2.0 | 0.00 | 0.00 | 0.00 | 41 | 1020.1 |
| 20260906125215 | 64 | 355 | 1.0 | 2.0 | 0.00 | 0.00 | 0.00 | 42 | 1020.2 |
| 20260906124236 | 64 | 355 | 2.0 | 4.0 | 0.00 | 0.00 | 0.00 | 42 | 1020.2 |
| 20260906123235 | 63 | 355 | 2.0 | 3.0 | 0.00 | 0.00 | 0.00 | 43 | 1020.2 |
| 20260906122215 | 64 | 355 | 1.0 | 2.0 | 0.00 | 0.00 | 0.00 | 42 | 1020.2 |
| 20260906121235 | 64 | 355 | 4.0 | 5.0 | 0.00 | 0.00 | 0.00 | 43 | 1020.2 |
| 20260906120235 | 65 | 355 | 3.0 | 4.0 | 0.00 | 0.00 | 0.00 | 43 | 1020.5 |
| 20260906115215 | 64 | 355 | 2.0 | 3.0 | 0.00 | 0.00 | 0.00 | 44 | 1020.2 |
| 20260906114215 | 64 | 355 | 4.0 | 5.0 | 0.00 | 0.00 | 0.00 | 45 | 1020.4 |
| 20260906113215 | 64 | 355 | 3.0 | 5.0 | 0.00 | 0.00 | 0.00 | 44 | 1020.4 |
| 20260906112215 | 64 | 355 | 5.0 | 6.0 | 0.00 | 0.00 | 0.00 | 45 | 1020.4 |
| 20260906111215 | 64 | 355 | 3.0 | 4.0 | 0.00 | 0.00 | 0.00 | 45 | 1020.4 |
| 20260906110235 | 64 | 355 | 3.0 | 5.0 | 0.00 | 0.00 | 0.00 | 46 | 1020.3 |
| 20260906105215 | 64 | 355 | 3.0 | 4.0 | 0.00 | 0.00 | 0.00 | 46 | 1020.4 |
| 20260906104215 | 64 | 331 | 4.0 | 5.0 | 0.00 | 0.00 | 0.00 | 47 | 1020.1 |
| 20260906103215 | 64 | 331 | 4.0 | 5.0 | 0.00 | 0.00 | 0.00 | 46 | 1020.0 |
| 20260906102215 | 64 | 331 | 3.0 | 4.0 | 0.00 | 0.00 | 0.00 | 47 | 1019.9 |
| 20260906101217 | 64 | 331 | 0.0 | 1.0 | 0.00 | 0.00 | 0.00 | 47 | 1019.8 |
| 20260906100237 | 64 | 331 | 3.0 | 4.0 | 0.00 | 0.00 | 0.00 | 45 | 1019.7 |
| 20260906095237 | 65 | 144 | 3.0 | 4.0 | 0.00 | 0.00 | 0.00 | 43 | 1020.0 |
| 20260906094217 | 67 | 144 | 1.0 | 1.0 | 0.00 | 0.00 | 0.00 | 41 | 1019.9 |
| 20260906093217 | 68 | 144 | 1.0 | 2.0 | 0.00 | 0.00 | 0.00 | 40 | 1019.9 |
| 20260906092217 | 66 | 306 | 0.0 | 2.0 | 0.00 | 0.00 | 0.00 | 41 | 1019.6 |
| 20260906091237 | 66 | 306 | 2.0 | 3.0 | 0.00 | 0.00 | 0.00 | 43 | 1019.5 |
| 20260906090217 | 66 | 41 | 2.0 | 3.0 | 0.00 | 0.00 | 0.00 | 43 | 1019.5 |
| 20260906085217 | 67 | 41 | 1.0 | 2.0 | 0.00 | 0.00 | 0.00 | 41 | 1019.8 |
| 20260906084217 | 67 | 0 | 2.0 | 3.0 | 0.00 | 0.00 | 0.00 | 40 | 1019.2 |
| 20260906083237 | 67 | 37 | 1.0 | 3.0 | 0.00 | 0.00 | 0.00 | 41 | 1019.4 |
| 20260906082216 | 68 | 57 | 3.0 | 4.0 | 0.00 | 0.00 | 0.00 | 40 | 1019.5 |
| 20260906081218 | 68 | 57 | 2.0 | 4.0 | 0.00 | 0.00 | 0.00 | 39 | 1019.6 |
| 20260906080216 | 68 | 349 | 4.0 | 5.0 | 0.00 | 0.00 | 0.00 | 36 | 1019.5 |
| 20260906075217 | 69 | 249 | 2.0 | 3.0 | 0.00 | 0.00 | 0.00 | 34 | 1019.8 |
| 20260906074216 | 71 | 54 | 2.0 | 3.0 | 0.00 | 0.00 | 0.00 | 29 | 1019.6 |
| 20260906073216 | 70 | 7 | 3.0 | 5.0 | 0.00 | 0.00 | 0.00 | 28 | 1019.3 |
| 20260906072216 | 69 | 68 | 3.0 | 4.0 | 0.00 | 0.00 | 0.00 | 29 | 1019.1 |
| 20260906071216 | 69 | 40 | 2.0 | 2.0 | 0.00 | 0.00 | 0.00 | 29 | 1018.9 |
| 20260906070216 | 69 | 40 | 1.0 | 3.0 | 0.00 | 0.00 | 0.00 | 29 | 1019.0 |
| 20260906065216 | 69 | 173 | 1.0 | 2.0 | 0.00 | 0.00 | 0.00 | 29 | 1018.9 |
| 20260906064236 | 69 | 173 | 2.0 | 5.0 | 0.00 | 0.00 | 0.00 | 29 | 1018.8 |
| 20260906063216 | 69 | 173 | 1.0 | 1.0 | 0.00 | 0.00 | 0.00 | 29 | 1018.8 |
| 20260906062236 | 69 | 224 | 2.0 | 5.0 | 0.00 | 0.00 | 0.00 | 28 | 1018.7 |
| 20260906061257 | 70 | 249 | 3.0 | 7.0 | 0.00 | 0.00 | 0.00 | 27 | 1018.6 |
| 20260906060216 | 72 | 249 | 1.0 | 2.0 | 0.00 | 0.00 | 0.00 | 26 | 1018.7 |
| 20260906055216 | 73 | 0.0 | 1.0 | 0.00 | 0.00 | 0.00 | 25 | 1018.9 | |
| 20260906054235 | 74 | 204 | 4.0 | 7.0 | 0.00 | 0.00 | 0.00 | 24 | 1018.9 |
| 20260906053215 | 75 | 202 | 5.0 | 8.0 | 0.00 | 0.00 | 0.00 | 23 | 1019.1 |
| 20260906052216 | 75 | 196 | 6.0 | 14.0 | 0.00 | 0.00 | 0.00 | 22 | 1019.1 |
| 20260906051215 | 76 | 190 | 9.0 | 13.0 | 0.00 | 0.00 | 0.00 | 21 | 1019.2 |
| 20260906050255 | 76 | 202 | 10.0 | 15.0 | 0.00 | 0.00 | 0.00 | 20 | 1019.2 |
| 20260906045215 | 76 | 185 | 9.0 | 17.0 | 0.00 | 0.00 | 0.00 | 20 | 1019.4 |
| 20260906044235 | 76 | 200 | 4.0 | 11.0 | 0.00 | 0.00 | 0.00 | 20 | 1019.0 |
| 20260906043215 | 76 | 208 | 7.0 | 11.0 | 0.00 | 0.00 | 0.00 | 21 | 1018.6 |
| 20260906042215 | 75 | 196 | 3.0 | 5.0 | 0.00 | 0.00 | 0.00 | 21 | 1018.6 |
| 20260906041215 | 75 | 244 | 1.0 | 4.0 | 0.00 | 0.00 | 0.00 | 21 | 1018.2 |
| 20260906040215 | 75 | 236 | 1.0 | 3.0 | 0.00 | 0.00 | 0.00 | 21 | 1018.2 |
| 20260906035235 | 75 | 206 | 3.0 | 6.0 | 0.00 | 0.00 | 0.00 | 20 | 1018.1 |
| 20260906034215 | 75 | 237 | 4.0 | 5.0 | 0.00 | 0.00 | 0.00 | 20 | 1017.9 |
| 20260906033215 | 76 | 198 | 2.0 | 5.0 | 0.00 | 0.00 | 0.00 | 20 | 1018.2 |
| 20260906032215 | 76 | 196 | 5.0 | 8.0 | 0.00 | 0.00 | 0.00 | 20 | 1018.1 |
| 20260906031215 | 76 | 194 | 2.0 | 9.0 | 0.00 | 0.00 | 0.00 | 21 | 1018.0 |
| 20260906030215 | 77 | 172 | 1.0 | 2.0 | 0.00 | 0.00 | 0.00 | 20 | 1017.9 |
| 20260906025215 | 77 | 192 | 1.0 | 4.0 | 0.00 | 0.00 | 0.00 | 20 | 1017.8 |
| 20260906024215 | 78 | 178 | 3.0 | 9.0 | 0.00 | 0.00 | 0.00 | 19 | 1017.2 |
| 20260906023215 | 78 | 177 | 3.0 | 8.0 | 0.00 | 0.00 | 0.00 | 19 | 1017.1 |
| 20260906022235 | 79 | 166 | 5.0 | 6.0 | 0.00 | 0.00 | 0.00 | 19 | 1017.3 |
| 20260906021215 | 79 | 173 | 3.0 | 7.0 | 0.00 | 0.00 | 0.00 | 20 | 1016.8 |
| 20260906020235 | 80 | 183 | 4.0 | 8.0 | 0.00 | 0.00 | 0.00 | 19 | 1016.8 |
| 20260906015215 | 81 | 184 | 4.0 | 7.0 | 0.00 | 0.00 | 0.00 | 19 | 1016.8 |
| 20260906014215 | 81 | 199 | 7.0 | 9.0 | 0.00 | 0.00 | 0.00 | 18 | 1016.4 |
| 20260906013215 | 82 | 196 | 5.0 | 12.0 | 0.00 | 0.00 | 0.00 | 18 | 1016.8 |
| 20260906012215 | 82 | 201 | 7.0 | 16.0 | 0.00 | 0.00 | 0.00 | 17 | 1016.8 |
| 20260906011215 | 83 | 199 | 8.0 | 14.0 | 0.00 | 0.00 | 0.00 | 17 | 1017.5 |
| 20260906010215 | 84 | 204 | 11.0 | 16.0 | 0.00 | 0.00 | 0.00 | 16 | 1017.5 |
| 20260906005215 | 84 | 202 | 12.0 | 19.0 | 0.00 | 0.00 | 0.00 | 16 | 1017.4 |
| 20260906004215 | 85 | 206 | 8.0 | 15.0 | 0.00 | 0.00 | 0.00 | 16 | 1017.7 |
| 20260906003217 | 85 | 213 | 13.0 | 19.0 | 0.00 | 0.00 | 0.00 | 17 | 1017.7 |
| 20260906002215 | 85 | 177 | 8.0 | 18.0 | 0.00 | 0.00 | 0.00 | 17 | 1017.8 |
| 20260906001237 | 85 | 187 | 9.0 | 14.0 | 0.00 | 0.00 | 0.00 | 17 | 1017.7 |
| 20260906000219 | 85 | 218 | 7.0 | 13.0 | 0.00 | 0.00 | 0.00 | 16 | 1017.7 |
| 20260905235217 | 85 | 235 | 14.0 | 21.0 | 0.00 | 0.00 | 0.00 | 16 | 1017.7 |
| 20260905234237 | 85 | 197 | 14.0 | 20.0 | 0.00 | 0.00 | 0.00 | 15 | 1018.2 |
| 20260905233257 | 85 | 201 | 7.0 | 14.0 | 0.00 | 0.00 | 0.00 | 16 | 1018.2 |
| 20260905232217 | 86 | 193 | 14.0 | 19.0 | 0.00 | 0.00 | 0.00 | 15 | 1018.4 |
| 20260905231217 | 85 | 176 | 7.0 | 11.0 | 0.00 | 0.00 | 0.00 | 16 | 1018.4 |
| 20260905230237 | 85 | 200 | 9.0 | 20.0 | 0.00 | 0.00 | 0.00 | 15 | 1018.6 |
| 20260905225217 | 85 | 203 | 8.0 | 17.0 | 0.00 | 0.00 | 0.00 | 16 | 1018.6 |
| 20260905224216 | 86 | 205 | 12.0 | 23.0 | 0.00 | 0.00 | 0.00 | 15 | 1019.0 |
| 20260905223216 | 85 | 209 | 12.0 | 20.0 | 0.00 | 0.00 | 0.00 | 15 | 1019.1 |
| 20260905222217 | 85 | 227 | 9.0 | 17.0 | 0.00 | 0.00 | 0.00 | 14 | 1019.1 |
| 20260905221216 | 85 | 223 | 10.0 | 17.0 | 0.00 | 0.00 | 0.00 | 14 | 1019.0 |
| 20260905220216 | 85 | 196 | 9.0 | 14.0 | 0.00 | 0.00 | 0.00 | 14 | 1019.1 |
| 20260905215216 | 85 | 198 | 10.0 | 17.0 | 0.00 | 0.00 | 0.00 | 13 | 1019.5 |
| 20260905214216 | 85 | 224 | 11.0 | 27.0 | 0.00 | 0.00 | 0.00 | 13 | 1019.7 |
| 20260905213217 | 85 | 204 | 9.0 | 16.0 | 0.00 | 0.00 | 0.00 | 14 | 1019.6 |
| 20260905212236 | 84 | 166 | 9.0 | 15.0 | 0.00 | 0.00 | 0.00 | 13 | 1019.6 |
| 20260905211216 | 83 | 154 | 7.0 | 16.0 | 0.00 | 0.00 | 0.00 | 21 | 1019.9 |
| 20260905210216 | 83 | 155 | 8.0 | 14.0 | 0.00 | 0.00 | 0.00 | 21 | 1019.9 |
| 20260905205216 | 83 | 159 | 6.0 | 10.0 | 0.00 | 0.00 | 0.00 | 22 | 1020.0 |
| 20260905204236 | 82 | 167 | 9.0 | 13.0 | 0.00 | 0.00 | 0.00 | 19 | 1019.4 |
| 20260905203216 | 82 | 183 | 6.0 | 11.0 | 0.00 | 0.00 | 0.00 | 23 | 1020.0 |
| 20260905202216 | 81 | 158 | 7.0 | 15.0 | 0.00 | 0.00 | 0.00 | 23 | 1019.9 |
| 20260905201216 | 81 | 158 | 9.0 | 14.0 | 0.00 | 0.00 | 0.00 | 23 | 1020.1 |
| 20260905200216 | 81 | 107 | 5.0 | 12.0 | 0.00 | 0.00 | 0.00 | 23 | 1020.1 |
| 20260905195236 | 81 | 162 | 7.0 | 18.0 | 0.00 | 0.00 | 0.00 | 23 | 1020.0 |
| 20260905194216 | 81 | 151 | 8.0 | 14.0 | 0.00 | 0.00 | 0.00 | 25 | 1020.3 |
| 20260905193216 | 80 | 104 | 8.0 | 16.0 | 0.00 | 0.00 | 0.00 | 25 | 1020.0 |
| 20260905192236 | 80 | 118 | 8.0 | 17.0 | 0.00 | 0.00 | 0.00 | 25 | 1020.2 |
| 20260905191216 | 79 | 93 | 15.0 | 25.0 | 0.00 | 0.00 | 0.00 | 26 | 1020.4 |
| 20260905190236 | 79 | 149 | 10.0 | 19.0 | 0.00 | 0.00 | 0.00 | 24 | 1020.6 |
| 20260905185216 | 79 | 142 | 13.0 | 18.0 | 0.00 | 0.00 | 0.00 | 25 | 1020.5 |
| 20260905184216 | 79 | 102 | 11.0 | 17.0 | 0.00 | 0.00 | 0.00 | 25 | 1021.1 |
| 20260905183216 | 79 | 135 | 9.0 | 19.0 | 0.00 | 0.00 | 0.00 | 25 | 1021.1 |
| 20260905182216 | 78 | 168 | 7.0 | 12.0 | 0.00 | 0.00 | 0.00 | 26 | 1021.2 |
| 20260905181216 | 78 | 153 | 11.0 | 18.0 | 0.00 | 0.00 | 0.00 | 26 | 1021.2 |
| 20260905180216 | 79 | 187 | 12.0 | 20.0 | 0.00 | 0.00 | 0.00 | 19 | 1021.5 |
| 20260905175216 | 78 | 180 | 10.0 | 18.0 | 0.00 | 0.00 | 0.00 | 21 | 1021.0 |
| 20260905174216 | 77 | 122 | 10.0 | 19.0 | 0.00 | 0.00 | 0.00 | 28 | 1021.0 |
| 20260905173216 | 77 | 178 | 11.0 | 19.0 | 0.00 | 0.00 | 0.00 | 22 | 1021.1 |
| 20260905172216 | 77 | 182 | 4.0 | 11.0 | 0.00 | 0.00 | 0.00 | 28 | 1021.2 |
| 20260905171236 | 77 | 202 | 5.0 | 9.0 | 0.00 | 0.00 | 0.00 | 29 | 1021.4 |
| 20260905170216 | 78 | 173 | 8.0 | 11.0 | 0.00 | 0.00 | 0.00 | 21 | 1021.6 |
| 20260905165216 | 78 | 178 | 8.0 | 19.0 | 0.00 | 0.00 | 0.00 | 21 | 1021.6 |
| 20260905164216 | 76 | 188 | 10.0 | 15.0 | 0.00 | 0.00 | 0.00 | 27 | 1021.1 |
| 20260905163216 | 76 | 177 | 8.0 | 17.0 | 0.00 | 0.00 | 0.00 | 21 | 1021.0 |
| 20260905162216 | 75 | 189 | 7.0 | 13.0 | 0.00 | 0.00 | 0.00 | 25 | 1020.9 |
| 20260905161215 | 74 | 75 | 4.0 | 5.0 | 0.00 | 0.00 | 0.00 | 40 | 1021.3 |
| 20260905160216 | 72 | 1 | 3.0 | 5.0 | 0.00 | 0.00 | 0.00 | 38 | 1020.8 |
| 20260905155216 | 71 | 64 | 7.0 | 10.0 | 0.00 | 0.00 | 0.00 | 42 | 1020.5 |
| 20260905154215 | 71 | 56 | 5.0 | 10.0 | 0.00 | 0.00 | 0.00 | 41 | 1020.8 |
| 20260905153236 | 71 | 72 | 6.0 | 8.0 | 0.00 | 0.00 | 0.00 | 45 | 1020.9 |
| 20260905152216 | 71 | 59 | 4.0 | 8.0 | 0.00 | 0.00 | 0.00 | 45 | 1021.1 |
| 20260905151215 | 72 | 103 | 1.0 | 3.0 | 0.00 | 0.00 | 0.00 | 37 | 1021.3 |
| 20260905150215 | 72 | 108 | 2.0 | 4.0 | 0.00 | 0.00 | 0.00 | 35 | 1021.1 |
| 20260905145216 | 72 | 109 | 3.0 | 3.0 | 0.00 | 0.00 | 0.00 | 34 | 1021.1 |
| 20260905144236 | 72 | 109 | 2.0 | 2.0 | 0.00 | 0.00 | 0.00 | 34 | 1021.5 |
| 20260905143216 | 71 | 109 | 1.0 | 2.0 | 0.00 | 0.00 | 0.00 | 34 | 1021.2 |
| 20260905142216 | 69 | 0.0 | 0.0 | 0.00 | 0.00 | 0.00 | 37 | 1020.7 | |
| 20260905141216 | 68 | 109 | 0.0 | 1.0 | 0.00 | 0.00 | 0.00 | 39 | 1020.7 |
| 20260905140215 | 68 | 0.0 | 0.0 | 0.00 | 0.00 | 0.00 | 39 | 1020.5 | |
| 20260905135215 | 67 | 110 | 0.0 | 2.0 | 0.00 | 0.00 | 0.00 | 40 | 1020.6 |
| 20260905134215 | 66 | 98 | 1.0 | 3.0 | 0.00 | 0.00 | 0.00 | 41 | 1020.5 |
| 20260905133235 | 64 | 98 | 1.0 | 3.0 | 0.00 | 0.00 | 0.00 | 36 | 1019.8 |